Weather History for KMGW - December, 2010

Change the Weather History Date:

Wednesday, December 1, 2010

  Actual Average Record
Temperature  
Mean Temperature 42 °F 39 °F  
Max Temperature 54 °F 47 °F 75 °F (2006)
Min Temperature 30 °F 31 °F 11 °F (1964)
Degree Days  
Heating Degree Days 23 26  
Month to date heating degree days 23 26  
Since 1 July heating degree days 976 1074  
Cooling Degree Days 0 0  
Month to date cooling degree days 0 0  
Year to date cooling degree days 1195 814  
Moisture  
Dew Point 31 °F    
Average Humidity 83    
Maximum Humidity 96    
Minimum Humidity 69    
Precipitation  
Precipitation 0.66 in 0.10 in 1.08 in (1974)
Month to date precipitation 0.66 0.10  
Year to date precipitation 38.85 39.02  
Sea Level Pressure  
Sea Level Pressure 29.88 in    
Wind  
Wind Speed 7 mph (WSW)    
Max Wind Speed 16 mph    
Max Gust Speed 25 mph    
Visibility 4 miles    
Events Rain , Snow    
T = Trace of Precipitation, MM = Missing Value Source: NWS Daily Summary

Daily Weather History Graph

Daily Weather History Graph

Search for Another Location

Airport or City:

Trip Planner

Search our weather history database for the weather conditions in past years. The results will help you decide how hot, cold, wet, or windy it might be!

Date:

Astronomy

Dec. 01, 2010 Rise Set
Actual Time 7:21 AM EST 4:55 PM EST
Civil Twilight 6:51 AM EST 5:25 PM EST
Nautical Twilight 6:18 AM EST 5:59 PM EST
Astronomical Twilight 5:45 AM EST 6:31 PM EST
Moon 2:46 AM EST (12/1) 1:56 PM EST (12/1)
Length of Visible Light 10h 34m
Length of Day
9h 34m
Waning Crescent, 20% of the Moon is Illuminated
Dec 1
Waning Crescent
Dec 5
New
Dec 13
First Quarter
Dec 21
Full
Dec 27
Last Quarter

Hourly Weather History & Observations

Time (EST) Temp. Windchill Dew Point Humidity Pressure Visibility Wind Dir Wind Speed Gust Speed Precip Events Conditions
12:34 AM 53.6 °F - 50.0 °F 88% 29.75 in 4.0 mi SSW 4.6 mph - 0.06 in Rain Rain
12:53 AM 52.0 °F - 50.0 °F 93% 29.73 in 5.0 mi Calm Calm - 0.09 in Rain Light Rain
1:00 AM 51.8 °F - 50.0 °F 94% 29.72 in 6.0 mi Calm Calm - 0.01 in Rain Light Rain
1:05 AM 51.8 °F - 48.2 °F 88% 29.72 in 7.0 mi South 4.6 mph - 0.02 in Rain Light Rain
1:16 AM 51.8 °F - 50.0 °F 94% 29.72 in 7.0 mi SSW 3.5 mph - 0.03 in Rain Light Rain
1:39 AM 51.8 °F - 50.0 °F 94% 29.70 in 7.0 mi SSW 4.6 mph - 0.06 in Rain Light Rain
1:53 AM 51.1 °F - 48.9 °F 92% 29.70 in 6.0 mi SW 4.6 mph - 0.08 in Rain Light Rain
2:27 AM 51.8 °F - 48.2 °F 88% 29.70 in 2.5 mi Calm Calm - 0.11 in Rain Heavy Rain
2:41 AM 51.8 °F - 48.2 °F 88% 29.69 in 2.5 mi Calm Calm - 0.16 in Rain Rain
2:53 AM 51.1 °F - 48.9 °F 92% 29.68 in 3.0 mi Variable 3.5 mph - 0.20 in Rain Rain
3:15 AM 50.0 °F - 48.2 °F 94% 29.71 in 2.5 mi Variable 4.6 mph - 0.08 in Rain Rain
3:25 AM 44.6 °F 38.8 °F 42.8 °F 93% 29.72 in 4.0 mi WNW 11.5 mph 25.3 mph 0.10 in Rain Rain
3:53 AM 42.1 °F 38.4 °F 37.9 °F 85% 29.76 in 7.0 mi West 5.8 mph 21.9 mph 0.14 in Rain Rain
4:05 AM 42.8 °F 38.6 °F 37.4 °F 81% 29.76 in 4.0 mi West 6.9 mph - 0.02 in Rain Rain
4:53 AM 39.9 °F 33.9 °F 36.0 °F 86% 29.79 in 8.0 mi SW 9.2 mph - 0.04 in Rain Light Rain
5:32 AM 37.4 °F 30.8 °F 35.6 °F 93% 29.82 in 2.5 mi WSW 9.2 mph - 0.03 in Rain Light Rain
5:36 AM 37.4 °F 33.8 °F 33.8 °F 87% 29.81 in 3.0 mi WSW 4.6 mph - 0.03 in Rain Light Rain
5:46 AM 37.4 °F 32.1 °F 33.8 °F 87% 29.80 in 3.0 mi WNW 6.9 mph - 0.04 in Rain Light Rain
5:53 AM 36.0 °F 31.1 °F 34.0 °F 93% 29.82 in 3.0 mi West 5.8 mph - 0.05 in Rain Light Rain
6:36 AM 35.6 °F 30.7 °F 33.8 °F 93% 29.83 in 5.0 mi WSW 5.8 mph - 0.01 in   Overcast
6:43 AM 35.6 °F 29.9 °F 32.0 °F 87% 29.83 in 5.0 mi WSW 6.9 mph - 0.01 in   Overcast
6:53 AM 34.0 °F 31.0 °F 32.0 °F 92% 29.83 in 4.0 mi Variable 3.5 mph - 0.02 in Snow Light Snow
7:01 AM 33.8 °F 27.0 °F 32.0 °F 93% 29.82 in 1.8 mi West 8.1 mph - 0.00 in Snow Light Snow
7:22 AM 33.8 °F 28.6 °F 30.2 °F 87% 29.83 in 0.8 mi WSW 5.8 mph - 0.02 in Snow Light Snow
7:29 AM 33.8 °F 28.6 °F 30.2 °F 87% 29.83 in 1.0 mi Variable 5.8 mph - 0.02 in Snow Light Snow
7:47 AM 33.8 °F 29.6 °F 30.2 °F 87% 29.85 in 2.0 mi Variable 4.6 mph - 0.03 in   Overcast
8:08 AM 33.8 °F 27.7 °F 28.4 °F 81% 29.85 in 5.0 mi West 6.9 mph - 0.00 in   Overcast
8:41 AM 33.8 °F 30.8 °F 28.4 °F 81% 29.86 in 3.0 mi Variable 3.5 mph - 0.00 in   Overcast
8:53 AM 33.1 °F 28.7 °F 28.9 °F 85% 29.87 in 4.0 mi WSW 4.6 mph - 0.00 in   Overcast
9:09 AM 32.0 °F 26.4 °F 28.4 °F 87% 29.87 in 2.0 mi WSW 5.8 mph - 0.00 in   Overcast
9:26 AM 32.0 °F 27.5 °F 28.4 °F 87% 29.87 in 5.0 mi Variable 4.6 mph - 0.00 in   Overcast
9:53 AM 33.1 °F 26.9 °F 28.9 °F 85% 29.88 in 6.0 mi Variable 6.9 mph - 0.00 in   Overcast
10:38 AM 33.8 °F 26.4 °F 28.4 °F 81% 29.87 in 2.0 mi SW 9.2 mph - 0.00 in Snow Light Snow
10:45 AM 33.8 °F 26.4 °F 30.2 °F 87% 29.87 in 1.5 mi WSW 9.2 mph - 0.00 in Snow Light Snow
10:49 AM 33.8 °F 26.4 °F 28.4 °F 81% 29.87 in 1.8 mi WSW 9.2 mph 17.3 mph 0.00 in Snow Light Snow
11:19 AM 33.8 °F 27.0 °F 28.4 °F 81% 29.87 in 1.8 mi SW 8.1 mph 16.1 mph 0.00 in Snow Light Snow
11:22 AM 33.8 °F 27.7 °F 28.4 °F 81% 29.87 in 2.0 mi WSW 6.9 mph 16.1 mph 0.00 in Snow Light Snow
11:33 AM 33.8 °F 25.8 °F 28.4 °F 81% 29.87 in 5.0 mi SW 10.4 mph 19.6 mph 0.00 in   Haze
11:46 AM 33.8 °F 26.4 °F 28.4 °F 81% 29.86 in 5.0 mi WSW 9.2 mph 16.1 mph 0.00 in   Haze
11:53 AM 34.0 °F 27.2 °F 28.9 °F 82% 29.88 in 2.5 mi SW 8.1 mph - 0.00 in   Haze
12:00 PM 33.8 °F 28.6 °F 28.4 °F 81% 29.87 in 1.0 mi Variable 5.8 mph - 0.00 in Snow Light Snow
12:08 PM 32.0 °F 24.2 °F 28.4 °F 87% 29.87 in 0.8 mi WSW 9.2 mph 18.4 mph 0.00 in Snow Light Snow
12:20 PM 33.8 °F 25.3 °F 26.6 °F 75% 29.87 in 1.8 mi WSW 11.5 mph 24.2 mph 0.01 in Snow Light Snow
12:25 PM 33.8 °F 27.0 °F 26.6 °F 75% 29.87 in 2.5 mi SW 8.1 mph 24.2 mph 0.01 in   Haze
12:35 PM 33.8 °F 28.6 °F 28.4 °F 81% 29.87 in 1.8 mi Variable 5.8 mph - 0.01 in Snow Light Snow
12:39 PM 33.8 °F 27.7 °F 28.4 °F 81% 29.87 in 3.0 mi Variable 6.9 mph - 0.01 in Snow Light Snow
12:53 PM 33.1 °F 25.5 °F 27.0 °F 78% 29.88 in 2.5 mi WSW 9.2 mph 20.7 mph 0.01 in Snow Light Snow
1:03 PM 33.8 °F 26.4 °F 28.4 °F 81% 29.86 in 7.0 mi WSW 9.2 mph 18.4 mph 0.00 in   Overcast
1:53 PM 33.1 °F 26.9 °F 26.1 °F 75% 29.89 in 7.0 mi West 6.9 mph - 0.00 in   Overcast
2:02 PM 32.0 °F 26.4 °F 28.4 °F 87% 29.87 in 1.8 mi West 5.8 mph 16.1 mph 0.00 in Snow Light Snow
2:17 PM 32.0 °F 27.5 °F 28.4 °F 87% 29.88 in 2.0 mi Variable 4.6 mph - 0.00 in Snow Light Snow
2:23 PM 32.0 °F 23.0 °F 28.4 °F 87% 29.88 in 1.0 mi WSW 11.5 mph - 0.00 in Snow Light Snow
2:30 PM 32.0 °F 25.6 °F 28.4 °F 87% 29.89 in 0.8 mi WSW 6.9 mph 16.1 mph 0.00 in Snow Light Snow
2:38 PM 32.0 °F 25.6 °F 28.4 °F 87% 29.89 in 1.0 mi WSW 6.9 mph - 0.00 in Snow Light Snow
2:46 PM 32.0 °F 25.6 °F 28.4 °F 87% 29.90 in 2.0 mi SW 6.9 mph - 0.00 in Snow Light Snow
2:53 PM 32.0 °F 24.2 °F 28.0 °F 85% 29.92 in 3.0 mi WSW 9.2 mph - 0.00 in Snow Light Snow
3:01 PM 32.0 °F 24.2 °F 26.6 °F 80% 29.90 in 8.0 mi WSW 9.2 mph - 0.00 in   Overcast
3:53 PM 33.1 °F 23.4 °F 25.0 °F 72% 29.96 in 10.0 mi West 13.8 mph 19.6 mph 0.00 in   Overcast
4:03 PM 32.0 °F 24.8 °F 24.8 °F 75% 29.93 in 10.0 mi West 8.1 mph 17.3 mph N/A   Overcast
4:28 PM 30.2 °F 21.9 °F 24.8 °F 80% 29.95 in 1.8 mi WSW 9.2 mph 23.0 mph 0.00 in Snow Light Snow
4:39 PM 30.2 °F 22.6 °F 24.8 °F 80% 29.95 in 2.5 mi West 8.1 mph 16.1 mph 0.00 in Snow Light Snow
4:46 PM 30.2 °F 24.3 °F 24.8 °F 80% 29.96 in 3.0 mi Variable 5.8 mph 19.6 mph 0.00 in Snow Light Snow
4:53 PM 30.9 °F 19.8 °F 23.0 °F 72% 29.99 in 8.0 mi WSW 16.1 mph 23.0 mph 0.00 in   Overcast
5:00 PM 30.2 °F 20.2 °F 21.2 °F 69% 29.97 in 9.0 mi WSW 12.7 mph 23.0 mph N/A   Overcast
5:53 PM 30.0 °F 25.2 °F 21.9 °F 72% 30.04 in 10.0 mi Variable 4.6 mph - N/A   Overcast
6:53 PM 30.0 °F 25.2 °F 21.9 °F 72% 30.05 in 10.0 mi Variable 4.6 mph - N/A   Overcast
7:37 PM 30.2 °F 25.4 °F 24.8 °F 80% 30.02 in 5.0 mi SSW 4.6 mph - 0.00 in Snow Light Snow
7:53 PM 30.0 °F 24.1 °F 24.1 °F 79% 30.06 in 3.0 mi SW 5.8 mph - 0.00 in Snow Light Snow
8:53 PM 30.0 °F 22.4 °F 25.0 °F 82% 30.06 in 3.0 mi SW 8.1 mph - 0.00 in Snow Light Snow
9:09 PM 30.2 °F 21.3 °F 24.8 °F 80% 30.03 in 5.0 mi SW 10.4 mph - 0.00 in Snow Light Snow
10:00 PM 30.2 °F 26.7 °F 24.8 °F 80% 30.03 in 2.0 mi Variable 3.5 mph - 0.00 in Snow Light Snow
10:07 PM 30.2 °F 26.7 °F 24.8 °F 80% 30.03 in 2.5 mi Variable 3.5 mph - 0.00 in Snow Light Snow
10:20 PM 30.2 °F 25.4 °F 26.6 °F 86% 30.03 in 1.0 mi West 4.6 mph - 0.00 in Snow Light Snow
10:32 PM 30.2 °F 26.7 °F 26.6 °F 86% 30.04 in 1.5 mi Variable 3.5 mph - 0.01 in Snow Light Snow
10:45 PM 30.2 °F 25.4 °F 26.6 °F 86% 30.04 in 2.0 mi Variable 4.6 mph - 0.01 in Snow Light Snow
10:53 PM 30.0 °F 26.5 °F 26.1 °F 85% 30.08 in 1.8 mi Variable 3.5 mph - 0.01 in Snow Light Snow
10:57 PM 30.2 °F 25.4 °F 26.6 °F 86% 30.04 in 2.0 mi West 4.6 mph - 0.00 in Snow Light Snow
11:07 PM 30.2 °F 25.4 °F 26.6 °F 86% 30.04 in 4.0 mi Variable 4.6 mph - 0.00 in Snow Light Snow
11:18 PM 30.2 °F 25.4 °F 26.6 °F 86% 30.05 in 4.0 mi SW 4.6 mph - 0.00 in Snow Light Snow
11:28 PM 30.2 °F 25.4 °F 24.8 °F 80% 30.05 in 6.0 mi Variable 4.6 mph - 0.00 in Snow Light Snow
11:53 PM 30.0 °F 24.1 °F 25.0 °F 82% 30.09 in 8.0 mi Variable 5.8 mph - 0.00 in Snow Light Snow